SL-8 R/B

Satellite information

Favourite Embed

Satellite Type and Status

ROCKET BODYIN ORBIT

Key statistics

Satellite SL-8 R/B at a glance.

Uptime

11928

Days in orbit

Revolutions

≈ 13.8

Per day

Orbit

LEO

Low Earth Orbit

Inclination

82.9

Latest

Satellite identification and parameters

Extended collection of information and parameters for SL-8 R/B.

Object identification

Identified? True

Debris? False

Object name: SL-8 R/B

International designator: 1993-001B

Object number (NORAD): 22308

Object ID (CCSDS): 22308

Country: COMMONWEALTH OF INDEPENDENT STATES (CIS)

Current information (Y/N): Y

RCS size: LARGE

Orbital parameters

Period: 104.655 minutes

Inclination: 82.9315 deg

SMA: 7356.427 km

Apoapsis: 996.463 km

Periapsis: 960.12 km

RAAN: 96.6876 deg

Eccentricy: 0.00247018

Argument of periapsis: 89.402 deg

Mean anomaly: 324.28 deg

Mean motion: 13.75949188 rev/day

Mean motion (dot): 0.00000029 rev/day2

B* drag term: 0.000014096855 1/REarth

Two-line elements (TLE)

Creation date: Sept. 8, 2025, 6:18 p.m.

Reference frame: TEME

Reference center: EARTH

Epoch: Sept. 8, 2025, 2:04 p.m. UTC

TLE line 0: 0 SL-8 R/B

TLE line 1: 1 22308U 93001B 25251.58678413 .00000029 00000-0 14097-4 0 9991

TLE line 2: 2 22308 82.9315 96.6876 0024702 89.4020 324.2800 13.75949188639276

Live tracking on map

Real-time ground track for satellite SL-8 R/B.

In-orbit conjunctions

A list of the most updated potential collisions computed for object SL-8 R/B.

Target Orbit TCA Probability of collision Miss distance Type
SL-8 R/B LEO 2025-01-03 23:31:16 0.0004783456 69.0 (m) ROCKET BODY

Associated space launch

Civilian navigation satellite equivalent to the purely military Parus

SL-8 R/B was lifted into orbit during the mission ‘Kosmos-3M | Tsikada 19’, on board a Kosmos-3M space rocket.

The launch took place on Jan. 12, 1993, 11:10 a.m. from 133/3 (133L).

For more information about the launch, click the button.

Launch to space Kosmos-3M | Tsikada 19
Kosmos-3M | Tsikada 19

Agency: N/A

Status: Launch Successful

Launch date: Jan. 12, 1993, 11:10 a.m. UTC

Rocket: Kosmos-3M

Launch pad: 133/3 (133L)

Location: Plesetsk Cosmodrome, Russian Federation

...

Latest news about this satellite

There are no fresh news available about this satellite. Check back as we update our databases every day.


Newsletter sign-up

Weekly statistics, charts and insights to help you stay on top of the space industry.